Location: Alt?nova Orta
(36.9295°N, 30.7847°E)
Time: 19:52:42
(UTC+00:00)

Aureole 2 Rocket - Pass Details

Date: 17 February 2020
Orbit: 308 x 449 km, 73.9° (Epoch: 03 April)

Event Time Altitude Azimuth Distance (km) Brightness Sun altitude
Exits shadow 02:43:19 - 12° (NNE) 2,205 6.1 -24.7°
Rises 02:43:20 0° 12° (NNE) 2,204 6.1 -24.7°
Enters shadow 03:50:01 -60° 338° (NNW) 11,396 9.4 -11.4°
Maximum altitude 04:21:05 35° 256° (WSW) 646 2.8 -5.3°
